Regional Weather Roundup
Issued by NWS Sioux Falls, SD

Home | Current Version | Previous Version | Text Only | Print | Product List | Glossary On
Versions: 1 2 3 4 5 6 7 8 9 10 11 12 13 14 15 16 17 18 19 20 21 22 23 24 25 26 27 28 29 30 31 32 33 34 35 36 37 38 39 40 41 42 43 44 45 46 47 48 49 50
000
ASUS43 KFSD 101202
RWRFSD

WEATHER ROUNDUP FOR SE SOUTH DAKOTA/SW MINNESOTA/NW IOWA
NATIONAL WEATHER SERVICE SIOUX FALLS SD
600 AM CST SAT DEC 10 2016

NOTE: "FAIR" INDICATES FEW OR NO CLOUDS BELOW 12,000 FEET WITH NO
SIGNIFICANT WEATHER AND OR OBSTRUCTIONS TO VISIBILITY.


SDZ038>040-050-052>070-101300-
SOUTHEAST SOUTH DAKOTA

CITY           SKY/WX    TMP DP  RH WIND       PRES   REMARKS
CHAMBERLAIN    LGT SNOW   7   3  84 E7        30.33F WCI  -5
6HR MIN TEMP:   4; 6HR MAX TEMP:   7;

HURON          LGT SNOW   1  -2  87 CALM      30.43F FOG
6HR MIN TEMP:  -1; 6HR MAX TEMP:   4; 6HR PCP: TRACE;

MADISON        FLURRIES   5   3  92 E9        30.38F WCI  -9
MITCHELL       LGT SNOW   8   4  83 NE6       30.41F FOG     WCI  -2
6HR MIN TEMP:   5; 6HR MAX TEMP:   8; 6HR PCP: TRACE;

SIOUX FALLS    LGT SNOW  11   7  84 E9        30.40F FOG     WCI  -2
6HR MIN TEMP:  10; 6HR MAX TEMP:  11; 6HR PCP: TRACE;

WINNER         LGT SNOW   6   1  80 E14       30.26F WCI -11
YANKTON        MOCLDY    12   7  79 CALM      30.39F
$$

MNZ071-072-080-081-089-090-097-098-101300-
SOUTHWEST MINNESOTA

CITY           SKY/WX    TMP DP  RH WIND       PRES   REMARKS
FAIRMONT       FLURRIES   7   2  80 NE7       30.48F WCI  -5
JACKSON        FLURRIES   7   3  85 NE6       30.44F WCI  -3
LUVERNE        CLOUDY     9   3  78 NE8       30.43F WCI  -4
MARSHALL       PTCLDY     1  -3  83 N6        30.49F WCI -10
6HR MIN TEMP:   1; 6HR MAX TEMP:   5; 6HR PCP: TRACE;

MONTEVIDEO     CLOUDY    -2  -6  84 N3        30.52S
PIPESTONE      CLOUDY     7   1  78 E6        30.39F WCI  -3
REDWOOD FALLS  PTCLDY     2  -3  80 NW3       30.51F
TRACY          CLOUDY     5   1  86 CALM      30.46F
WINDOM         CLOUDY     5   1  85 MISG      30.45F
WORTHINGTON    FLURRIES   6   2  83 NE8       30.42F WCI  -7
$$

IAZ001>003-012>014-020>022-031-032-NEZ013-014-SDZ071-101300-
NORTHWEST IOWA

CITY           SKY/WX    TMP DP  RH WIND       PRES   REMARKS
CHEROKEE       FLURRIES  17  15  90 E5        30.44S WCI  10
DENISON        CLOUDY    21  14  73 CALM      30.40F
ESTHERVILLE    CLOUDY     7   4  87 NE7       30.45F WCI  -5
LE MARS        CLOUDY    18  14  86 E5        30.43F WCI  11
ORANGE CITY    CLOUDY    14  12  92 CALM      30.41S
SHELDON        FLURRIES  10   9  92 E9        30.41F WCI  -2
SIOUX CITY     CLOUDY    21  13  71 E5        30.43F WCI  15
6HR MIN TEMP:  20; 6HR MAX TEMP:  21; 6HR PCP: TRACE;

SPENCER        CLOUDY    10   6  84 NE8       30.45F WCI  -2
6HR MIN TEMP:  10; 6HR MAX TEMP:  15; 6HR PCP: TRACE;

STORM LAKE     CLOUDY    16  12  86 E7        30.42F WCI   6
$$

ABBREVIATIONS USED IN REMARKS
   TC - TEMPERATURE IN CELSIUS
  WCI - WIND CHILL INDEX
   HX - HEAT INDEX
  VSB - VISIBILITY





USA.gov is the U.S. government's official web portal to all federal, state and local government web resources and services.